Probability
48 19 6 0 0 0 0 0 0 0 0 0 0 0 0 0 0 0 0 0 0 3 23 39 42 35 35 35 35 32 42 52 52 52 48 45 32 32 39 35 35 35 39 39 35 39 42 42 48
19 3 3 0 0 0 0 0 0 0 0 0 0 0 0 0 0 0 0 6 3 19 26 29 42 42 39 39 35 45 45 48 45 48 48 39 42 32 39 35 32 32 35 32 32 32 42 39 45
13 0 0 0 0 0 0 0 0 0 0 0 0 0 0 0 0 0 0 10 13 19 26 26 52 42 45 35 35 45 45 45 42 45 45 42 35 32 32 29 29 32 32 32 29 32 35 32 32
0 0 0 0 0 0 0 0 0 0 0 0 0 0 0 0 0 0 6 10 13 16 23 32 55 45 45 42 32 45 42 39 39 42 39 32 35 32 29 32 32 26 32 32 29 39 32 29 29
0 0 0 0 0 0 0 0 0 3 0 0 0 0 0 0 0 6 13 13 13 16 19 39 45 52 45 45 45 42 45 39 32 29 32 29 32 32 29 26 26 26 26 26 26 29 32 35 32
0 0 0 0 0 0 0 0 0 0 0 0 0 0 0 0 3 13 16 13 10 16 23 35 45 48 39 42 45 39 32 42 35 35 39 32 35 29 32 32 26 23 23 23 19 32 32 35 32
0 0 0 0 0 0 0 0 0 0 3 0 0 0 0 0 0 10 13 6 13 16 19 16 19 19 48 52 45 39 52 55 39 35 29 29 35 35 35 35 35 32 29 32 29 29 39 35 35
0 0 0 0 0 0 0 0 0 0 3 0 0 0 0 0 0 6 6 0 10 13 10 10 13 13 16 19 42 48 39 35 29 26 19 23 19 16 16 19 29 29 29 32 29 32 35 42 35
0 0 0 0 0 0 0 0 0 0 6 6 0 0 0 0 0 3 0 0 3 0 3 3 3 3 6 10 16 23 26 26 26 13 23 6 6 6 6 6 19 26 26 26 23 26 29 26 23
0 0 0 0 0 0 0 0 0 3 6 3 3 0 0 3 6 6 0 0 0 3 6 3 0 0 3 6 6 6 6 6 10 6 6 0 0 0 6 3 10 16 23 19 19 13 6 3 3
3 0 0 0 0 0 0 0 0 0 0 0 0 6 6 6 6 3 3 0 0 3 6 3 0 0 0 0 0 0 0 0 0 0 0 0 0 0 0 0 0 3 6 3 3 3 3 3 0
3 3 0 0 0 0 0 0 0 0 0 0 0 6 3 3 6 3 0 0 0 3 3 0 0 0 0 0 0 0 0 0 0 0 0 0 0 0 0 0 0 0 0 0 0 0 0 0 0
0 0 0 0 0 0 0 0 0 0 3 6 6 10 3 3 3 0 0 0 3 3 3 0 0 0 0 0 0 0 0 0 0 0 0 0 0 0 0 0 0 0 0 0 0 0 0 0 0
0 0 0 0 0 0 0 0 0 0 6 6 6 10 3 3 3 3 0 3 3 3 0 0 0 0 0 0 0 0 0 0 0 0 0 0 0 0 0 0 0 0 0 0 0 0 0 0 0
0 0 0 0 0 0 0 0 0 0 6 6 6 3 6 3 3 3 0 3 3 0 0 0 0 0 0 0 0 0 0 0 0 0 0 0 0 0 0 0 0 0 0 0 0 0 0 0 0
0 0 0 0 0 0 0 0 0 0 3 3 3 3 6 3 6 3 0 3 3 0 0 0 0 0 0 0 0 0 0 0 0 0 0 0 0 0 0 0 0 0 0 0 0 0 0 0 0
0 0 0 0 0 0 0 0 0 0 0 3 3 0 3 0 0 0 0 3 3 0 0 0 0 0 0 0 0 0 0 0 0 0 0 0 0 0 0 0 0 0 0 0 0 0 0 0 0
0 0 0 0 0 0 0 0 0 0 0 0 0 0 0 0 0 0 0 0 3 0 0 0 0 0 0 0 0 0 0 0 0 0 0 0 0 0 0 0 0 0 0 0 0 0 0 0 0
0 0 0 0 0 0 0 0 0 0 0 0 0 0 0 0 0 0 0 0 0 0 0 0 0 0 0 0 0 0 0 0 0 0 0 0 0 0 0 0 0 0 0 0 0 0 0 0 0
0 0 0 0 0 0 0 0 0 0 0 0 0 0 0 0 0 0 0 0 0 0 0 0 0 0 0 0 0 0 0 0 0 0 0 0 0 0 0 0 0 0 0 0 0 0 0 0 0
0 0 0 0 0 0 0 0 0 0 0 0 0 0 0 0 0 0 0 0 0 0 0 0 0 0 0 0 0 0 0 0 0 0 0 0 0 0 0 0 0 0 0 0 0 0 0 0 0
0 0 0 0 0 0 0 0 0 0 0 0 0 0 0 0 0 0 0 3 3 0 0 0 0 0 0 0 0 0 0 0 0 0 0 0 0 0 0 0 0 0 0 0 0 0 0 0 0
0 0 0 0 0 0 0 0 0 0 0 0 0 0 0 0 0 0 3 3 3 3 0 0 0 0 0 0 0 0 0 0 0 0 0 0 0 0 0 0 0 0 0 0 0 0 0 0 0
0 0 0 0 0 0 0 0 0 0 0 0 0 0 0 0 0 0 0 3 3 3 0 0 0 0 0 0 0 0 0 0 0 0 0 0 0 0 0 0 0 0 0 0 0 0 0 0 0
0 0 0 0 0 0 0 0 0 0 0 0 0 0 0 0 0 0 0 3 3 3 0 0 0 0 0 0 0 0 0 0 0 0 0 0 0 0 0 0 0 0 0 0 0 0 0 0 0
0 0 0 0 0 0 0 0 0 0 0 0 0 0 0 0 0 0 0 3 3 3 0 0 0 0 0 0 0 0 0 0 0 0 0 0 0 0 0 0 0 0 0 0 0 0 0 0 0
0 0 0 0 0 0 0 0 0 0 0 0 0 0 0 0 0 0 3 3 3 3 0 0 0 0 0 0 0 0 0 0 0 0 0 0 0 0 0 0 0 0 0 0 0 0 0 0 0
0 0 0 0 0 0 0 0 0 0 0 0 0 0 0 0 0 0 3 3 3 3 0 0 0 0 0 0 0 0 0 0 0 0 0 0 0 0 0 0 0 0 0 0 0 0 0 0 0
0 0 0 0 0 0 0 0 0 0 0 0 0 0 0 0 0 0 0 3 3 0 0 0 0 0 0 0 0 0 0 0 0 0 0 0 0 0 0 0 0 0 0 0 0 0 0 0 0
0 0 0 0 0 0 0 0 0 0 0 0 0 0 0 0 0 0 0 3 3 0 0 0 0 0 0 0 0 0 0 0 0 0 0 0 0 0 0 0 0 0 0 0 0 0 0 0 0
Height
5866 5867 5868 5869 5870 5869 5869 5869 5868 5868 5868 5868 5868 5868 5868 5868 5869 5871 5869 5868 5868 5868 5868 5868 5867 5868 5868 5867 5867 5867 5867 5867 5867 5867 5867 5867 5867 5867 5867 5867 5867 5867 5868 5868 5868 5868 5868 5869 5869
5866 5867 5868 5868 5868 5868 5869 5868 5868 5868 5868 5868 5868 5868 5867 5867 5868 5868 5867 5867 5867 5867 5867 5867 5867 5867 5867 5866 5866 5866 5866 5866 5866 5866 5866 5866 5865 5866 5865 5865 5865 5866 5866 5866 5866 5867 5867 5867 5867
5866 5866 5868 5868 5867 5868 5868 5868 5867 5867 5867 5867 5867 5867 5867 5867 5867 5867 5867 5866 5866 5866 5866 5866 5865 5865 5865 5865 5865 5865 5865 5864 5864 5864 5864 5864 5864 5864 5864 5864 5864 5864 5864 5864 5865 5865 5865 5865 5865
5865 5867 5867 5867 5866 5867 5867 5867 5867 5867 5866 5866 5866 5866 5866 5866 5866 5866 5866 5865 5865 5865 5865 5864 5864 5864 5864 5864 5864 5863 5863 5863 5863 5863 5863 5862 5862 5862 5862 5862 5862 5862 5862 5862 5863 5863 5863 5863 5863
5865 5865 5866 5866 5866 5866 5866 5866 5866 5866 5866 5865 5866 5865 5865 5865 5865 5865 5865 5865 5864 5864 5864 5863 5863 5863 5862 5862 5862 5862 5862 5861 5861 5861 5861 5861 5861 5860 5860 5860 5860 5860 5860 5860 5860 5860 5861 5861 5861
5864 5864 5865 5865 5865 5865 5865 5865 5865 5865 5864 5865 5865 5864 5864 5864 5864 5864 5863 5863 5863 5863 5862 5862 5862 5861 5861 5861 5861 5860 5860 5860 5860 5859 5859 5859 5859 5858 5858 5858 5858 5858 5858 5858 5858 5858 5858 5859 5859
5863 5863 5863 5863 5864 5864 5864 5864 5864 5864 5864 5864 5864 5863 5863 5863 5863 5862 5862 5862 5862 5861 5861 5861 5860 5860 5860 5859 5859 5859 5858 5858 5858 5857 5857 5857 5857 5856 5856 5856 5856 5856 5856 5856 5856 5856 5856 5856 5856
5861 5862 5862 5862 5863 5863 5863 5863 5863 5863 5863 5863 5863 5863 5862 5862 5861 5861 5861 5861 5860 5860 5860 5859 5859 5858 5858 5858 5857 5857 5856 5856 5856 5855 5855 5855 5854 5854 5854 5854 5854 5854 5854 5854 5853 5853 5853 5854 5854
5860 5862 5861 5861 5862 5862 5862 5862 5862 5862 5862 5862 5861 5861 5861 5861 5860 5860 5860 5859 5859 5859 5858 5858 5857 5857 5856 5856 5855 5855 5854 5854 5853 5853 5853 5852 5852 5852 5852 5852 5852 5851 5851 5851 5851 5851 5851 5851 5851
5859 5860 5860 5860 5861 5860 5860 5861 5860 5861 5861 5860 5860 5860 5860 5859 5859 5858 5858 5858 5857 5857 5857 5856 5856 5855 5854 5854 5853 5853 5852 5852 5851 5851 5850 5849 5849 5849 5849 5849 5849 5849 5849 5848 5848 5848 5848 5848 5849
5858 5858 5858 5859 5859 5859 5859 5859 5859 5859 5860 5860 5859 5859 5858 5858 5858 5857 5857 5856 5856 5855 5855 5854 5854 5853 5852 5851 5851 5850 5850 5849 5849 5848 5847 5846 5846 5846 5846 5846 5846 5846 5846 5845 5845 5845 5845 5846 5846
5857 5857 5857 5857 5857 5858 5858 5858 5858 5858 5858 5858 5858 5857 5857 5856 5856 5855 5855 5854 5854 5853 5853 5852 5851 5851 5850 5849 5848 5848 5847 5847 5846 5846 5845 5844 5844 5843 5843 5843 5843 5843 5843 5843 5842 5842 5843 5843 5843
5855 5855 5855 5856 5856 5856 5856 5856 5856 5856 5856 5856 5856 5855 5855 5854 5854 5854 5853 5852 5851 5851 5850 5850 5849 5848 5847 5847 5846 5845 5845 5844 5844 5843 5842 5842 5841 5841 5841 5841 5840 5840 5840 5840 5840 5840 5840 5840 5840
5854 5854 5854 5854 5854 5854 5855 5855 5855 5854 5854 5854 5854 5853 5853 5853 5852 5852 5851 5850 5850 5849 5848 5847 5847 5846 5845 5844 5844 5843 5842 5842 5841 5840 5840 5839 5839 5838 5838 5838 5837 5837 5837 5837 5837 5837 5837 5837 5837
5852 5852 5853 5853 5853 5853 5853 5854 5853 5853 5852 5852 5852 5852 5851 5851 5851 5850 5849 5848 5847 5847 5846 5845 5844 5843 5843 5842 5841 5841 5840 5839 5838 5838 5837 5836 5836 5835 5835 5835 5834 5834 5834 5833 5833 5833 5834 5834 5834
5850 5851 5851 5852 5851 5851 5853 5852 5851 5851 5851 5850 5850 5850 5849 5849 5849 5848 5847 5846 5845 5845 5844 5843 5842 5841 5840 5839 5839 5838 5837 5837 5836 5835 5834 5834 5833 5832 5832 5832 5832 5831 5831 5830 5830 5830 5830 5830 5830
5848 5849 5849 5849 5849 5849 5850 5850 5849 5849 5849 5848 5848 5848 5847 5847 5846 5846 5845 5844 5843 5842 5842 5841 5839 5839 5838 5837 5836 5836 5835 5834 5833 5832 5831 5830 5830 5829 5829 5829 5828 5828 5828 5828 5827 5827 5827 5827 5827
5846 5846 5847 5847 5847 5847 5847 5847 5847 5847 5846 5846 5846 5845 5845 5845 5844 5843 5842 5841 5841 5840 5839 5838 5837 5836 5835 5835 5834 5833 5832 5831 5830 5829 5828 5827 5827 5826 5826 5826 5825 5825 5825 5824 5824 5824 5824 5824 5824
5843 5844 5844 5844 5844 5845 5844 5844 5845 5844 5844 5844 5843 5843 5843 5842 5842 5841 5840 5839 5838 5837 5837 5836 5835 5834 5833 5832 5831 5830 5829 5828 5827 5826 5825 5825 5824 5823 5823 5822 5822 5822 5822 5821 5821 5820 5820 5820 5820
5840 5841 5841 5841 5841 5842 5842 5842 5842 5842 5842 5841 5841 5841 5840 5840 5839 5838 5837 5836 5835 5835 5834 5833 5832 5831 5830 5829 5828 5827 5826 5825 5824 5823 5822 5821 5821 5820 5820 5819 5818 5818 5818 5818 5817 5816 5816 5816 5816
5837 5838 5838 5838 5838 5839 5839 5840 5839 5839 5839 5839 5838 5838 5837 5837 5836 5835 5834 5834 5833 5832 5831 5830 5829 5828 5827 5826 5825 5824 5822 5821 5821 5820 5819 5818 5818 5817 5816 5815 5815 5815 5814 5814 5813 5813 5812 5812 5812
5834 5835 5835 5835 5835 5836 5837 5837 5837 5836 5836 5836 5836 5835 5835 5834 5833 5832 5831 5831 5830 5829 5828 5827 5826 5825 5824 5823 5822 5821 5820 5819 5818 5816 5816 5815 5814 5813 5813 5812 5811 5811 5810 5810 5810 5809 5809 5808 5808
5831 5831 5831 5832 5832 5832 5833 5833 5835 5833 5833 5833 5833 5832 5832 5831 5830 5829 5828 5828 5827 5826 5825 5824 5823 5822 5821 5820 5818 5817 5816 5815 5813 5812 5812 5811 5810 5809 5809 5808 5807 5807 5806 5806 5806 5806 5805 5805 5804
5827 5828 5828 5828 5828 5829 5829 5829 5831 5830 5830 5830 5830 5829 5828 5827 5827 5826 5825 5825 5824 5823 5822 5821 5819 5818 5817 5816 5815 5813 5812 5810 5809 5808 5807 5806 5806 5805 5805 5804 5803 5803 5803 5802 5802 5802 5802 5801 5801
5824 5825 5825 5824 5824 5825 5825 5825 5827 5827 5827 5827 5826 5826 5825 5824 5824 5823 5822 5821 5821 5820 5819 5817 5816 5815 5813 5812 5811 5809 5807 5806 5805 5804 5803 5802 5801 5800 5800 5800 5799 5799 5799 5799 5798 5798 5798 5797 5797
5820 5821 5822 5822 5821 5821 5821 5821 5824 5823 5823 5823 5823 5822 5821 5821 5820 5820 5819 5818 5817 5816 5815 5814 5812 5811 5809 5808 5807 5805 5804 5802 5801 5800 5799 5798 5797 5796 5795 5795 5795 5795 5794 5794 5794 5794 5794 5793 5793
5816 5816 5817 5817 5817 5817 5817 5818 5819 5820 5820 5819 5819 5819 5818 5817 5817 5816 5815 5814 5813 5812 5811 5810 5808 5807 5805 5804 5803 5801 5800 5798 5797 5797 5796 5795 5794 5793 5791 5791 5790 5790 5790 5790 5790 5790 5789 5789 5788
5812 5813 5813 5813 5812 5812 5813 5814 5816 5816 5816 5816 5816 5815 5814 5814 5813 5812 5811 5810 5809 5808 5807 5806 5804 5803 5801 5800 5798 5797 5796 5795 5794 5793 5792 5791 5789 5788 5787 5786 5786 5786 5786 5785 5785 5785 5785 5785 5784
5808 5808 5808 5808 5808 5808 5809 5813 5812 5812 5812 5811 5811 5811 5810 5809 5808 5808 5807 5806 5805 5804 5803 5802 5800 5799 5797 5796 5794 5793 5792 5791 5790 5789 5787 5786 5785 5784 5783 5782 5781 5781 5781 5781 5781 5780 5780 5780 5779
5802 5803 5804 5804 5804 5804 5804 5809 5807 5807 5807 5807 5807 5807 5806 5805 5804 5803 5803 5802 5800 5799 5798 5797 5796 5795 5793 5792 5790 5789 5788 5787 5786 5785 5783 5782 5781 5780 5779 5778 5777 5776 5776 5776 5776 5775 5775 5775 5774
Wind_Speed
5 4 4 5 4 3 3 3 4 3 3 3 3 3 3 2 3 3 3 2 3 3 3 4 4 4 5 5 5 4 4 5 6 6 6 6 6 7 8 8 8 8 8 8 7 8 8 8 8
5 5 5 5 5 4 3 4 4 3 3 3 3 3 4 3 3 4 3 3 4 4 5 5 5 6 6 6 6 6 6 6 7 7 7 7 7 8 8 8 8 8 8 9 9 9 9 9 9
6 6 5 6 5 5 4 4 4 4 4 3 3 3 4 4 4 4 4 4 4 5 5 6 6 6 6 6 7 7 7 7 7 7 7 8 8 8 8 8 9 9 10 10 9 10 10 10 10
6 6 6 6 6 6 5 5 5 5 4 4 4 4 4 5 5 5 5 5 6 6 6 7 7 7 6 7 7 6 7 7 7 8 8 8 8 8 9 9 9 9 10 10 11 11 10 10 10
7 7 7 6 6 6 5 5 5 5 5 5 5 4 5 5 5 6 6 6 6 6 6 6 7 6 6 7 7 7 7 7 8 8 8 8 9 9 8 9 9 9 9 10 11 11 11 10 10
7 7 6 6 6 6 5 4 5 5 5 5 5 5 5 5 6 6 6 6 6 6 6 6 7 7 7 8 8 8 8 9 9 9 9 10 10 10 10 10 10 9 9 10 10 10 10 11 11
6 6 6 6 6 5 5 4 4 5 5 6 6 6 6 6 6 6 7 7 7 7 7 7 7 8 8 8 9 9 9 9 10 10 11 11 11 11 10 10 10 10 10 10 10 11 10 11 11
6 7 6 5 5 5 5 5 5 5 6 5 6 6 6 6 7 7 7 7 7 7 8 7 8 8 9 9 10 10 10 10 10 11 11 11 11 11 11 10 10 11 11 11 11 11 10 10 11
6 7 6 6 6 6 6 6 5 5 5 5 6 6 6 7 7 7 7 7 7 7 7 8 8 9 10 10 11 11 11 11 11 12 11 11 12 12 11 11 11 12 11 11 11 11 11 11 11
6 6 6 6 6 7 7 6 6 5 5 6 6 6 6 7 7 7 7 8 8 8 8 8 9 9 10 11 11 12 12 12 12 12 12 12 12 12 11 11 11 12 12 12 12 12 11 11 11
7 7 7 7 7 7 7 7 6 6 6 6 6 6 6 7 7 7 8 9 9 8 8 9 10 10 10 11 11 12 12 12 13 13 13 13 12 12 12 12 12 12 13 13 13 13 12 11 11
8 7 8 8 8 8 7 7 6 7 6 7 7 6 7 7 7 8 8 9 9 9 10 10 10 11 11 11 11 11 11 12 12 12 13 13 12 12 12 13 12 13 13 13 12 12 12 12 12
8 8 8 8 9 8 8 7 8 7 7 7 6 6 7 7 7 8 9 9 10 10 9 10 10 11 10 10 10 11 11 11 12 12 12 12 12 12 12 12 12 13 13 13 13 13 13 12 12
8 8 8 8 8 8 8 8 8 7 7 6 6 7 7 7 7 8 9 9 9 9 9 9 9 9 10 10 10 11 11 12 12 13 13 12 12 12 12 12 12 13 13 13 13 13 13 13 12
9 9 9 8 9 9 9 8 8 8 8 7 7 8 8 8 9 9 9 9 9 10 9 9 9 9 10 10 11 11 11 12 13 13 13 13 13 13 12 12 12 13 13 13 13 13 12 12 12
10 10 10 9 9 9 10 9 9 9 9 8 8 8 9 9 9 9 9 9 9 10 10 10 10 10 10 10 11 11 12 12 13 13 13 13 13 12 12 12 11 12 11 12 11 11 12 12 12
11 11 10 11 11 11 10 10 10 10 9 9 9 9 9 9 9 8 9 9 10 10 10 10 10 10 10 11 11 12 12 13 13 13 13 12 12 11 11 11 12 12 12 11 11 11 11 11 12
12 11 11 12 12 12 11 11 10 10 10 10 10 9 10 9 9 9 10 10 10 10 10 10 10 11 11 11 12 13 13 13 13 13 13 12 12 12 12 12 12 11 12 12 12 12 12 12 12
13 13 12 13 13 13 12 11 11 11 11 10 10 10 11 10 10 10 10 10 10 10 10 10 10 10 11 12 12 13 13 13 13 12 12 12 12 12 12 13 13 12 13 14 13 13 13 13 13
14 14 13 14 14 13 12 12 12 12 12 12 11 11 12 12 12 11 10 10 9 9 10 10 10 11 11 12 13 13 13 13 13 12 12 12 13 13 13 13 14 14 14 14 14 13 13 13 13
14 14 14 14 14 14 13 13 13 12 12 12 11 11 11 11 11 10 10 9 9 9 10 11 11 11 11 12 13 13 13 13 13 13 13 12 12 13 13 13 13 13 14 13 13 13 13 12 12
13 13 13 14 14 14 15 14 13 13 12 12 11 11 11 11 11 10 10 10 10 10 10 11 12 12 12 12 13 13 13 13 14 14 14 13 13 13 13 14 14 14 14 14 14 13 12 12 12
13 13 14 14 15 15 15 16 13 13 12 12 12 12 12 12 11 11 11 11 11 11 11 12 12 12 13 13 13 13 14 14 14 14 14 14 14 14 14 13 14 14 14 14 14 14 13 13 13
14 14 15 16 16 16 15 16 13 12 13 13 13 13 12 12 11 12 12 12 12 12 12 12 12 13 13 13 13 14 14 15 14 14 14 14 14 15 15 15 14 14 14 14 14 14 14 14 14
15 15 16 17 17 17 15 15 14 12 13 14 14 14 13 12 12 12 13 12 12 12 12 13 13 13 13 13 13 14 14 14 13 13 13 13 14 15 15 15 15 15 15 15 15 15 15 15 15
16 16 16 17 16 16 16 15 14 13 13 14 14 14 13 13 13 13 13 13 12 13 13 13 13 13 13 13 14 15 14 14 13 13 13 13 14 15 15 15 16 16 16 15 16 16 16 15 16
16 17 17 17 17 16 16 15 14 13 13 14 14 13 13 14 14 13 13 13 13 13 14 14 14 14 14 14 15 15 14 14 13 13 14 14 15 15 16 16 16 16 15 15 15 15 16 16 17
17 17 17 18 17 17 16 15 15 13 13 13 13 13 14 14 14 14 14 14 14 14 14 14 14 14 14 15 15 15 15 14 14 14 14 15 16 16 15 15 16 16 16 16 16 16 16 17 17
18 19 19 19 19 19 18 16 15 14 14 14 14 14 15 15 15 15 15 15 15 15 14 14 15 14 14 14 15 15 15 15 15 15 15 16 16 16 16 16 16 16 17 17 17 17 17 18 18
19 19 20 21 20 20 19 18 17 17 16 15 15 15 15 16 16 16 16 16 16 15 15 15 15 15 15 15 15 15 15 15 15 15 16 16 16 16 16 16 16 17 17 17 18 18 18 19 19
Wind_Direction
269 274 277 277 283 290 304 304 296 302 307 302 283 281 294 296 299 298 292 296 299 289 276 267 261 267 271 272 278 284 285 281 279 283 285 286 288 289 290 290 287 289 290 288 286 287 287 287 287
269 271 275 275 278 290 293 289 288 288 295 302 293 287 291 296 298 296 291 290 287 287 285 285 276 278 278 276 281 280 279 279 282 284 284 282 283 286 286 286 283 282 283 283 284 284 285 285 283
266 264 274 277 278 283 286 282 283 288 289 290 293 294 294 295 294 292 292 288 282 283 283 285 281 279 279 279 278 278 280 282 283 284 286 286 285 285 286 284 279 278 277 278 281 280 281 281 280
263 264 273 278 281 280 279 283 287 284 292 293 296 295 291 293 291 290 291 288 283 284 283 282 282 280 276 274 275 277 280 284 285 286 289 290 289 290 288 286 282 280 277 275 276 278 279 281 281
261 265 272 277 284 281 279 281 276 276 285 291 294 296 293 291 290 289 291 293 289 284 280 283 283 282 279 272 275 279 282 284 286 287 290 288 288 286 290 288 285 283 279 276 275 275 279 279 278
274 272 271 276 278 281 277 279 275 285 288 294 297 298 297 294 293 293 292 290 289 285 279 278 280 279 276 275 281 282 281 281 282 284 285 286 288 286 286 286 282 280 279 276 274 274 276 278 277
277 280 274 272 274 274 271 275 286 297 296 295 296 297 297 294 295 295 293 289 286 284 280 275 277 278 278 278 280 281 279 278 282 282 282 284 283 283 282 284 281 279 278 275 274 272 274 276 274
276 280 280 274 277 280 281 280 287 299 298 297 295 295 295 297 296 293 290 286 283 281 278 276 277 277 277 278 279 280 279 278 280 283 282 280 281 279 278 280 278 278 277 275 274 275 277 275 275
279 278 277 273 273 275 282 285 284 289 294 300 301 300 299 296 297 294 289 285 281 280 280 280 282 284 283 282 281 280 279 279 281 282 282 282 277 276 276 275 274 276 276 275 274 273 272 272 274
277 274 273 272 274 277 279 285 286 285 289 299 302 303 299 298 298 295 292 289 284 281 282 282 284 285 284 281 279 278 277 275 278 280 279 279 277 276 275 276 275 274 275 274 272 272 273 275 273
277 275 275 273 274 279 281 286 289 290 288 291 296 296 292 293 291 290 290 288 285 285 285 286 286 286 287 283 278 276 276 276 277 280 279 277 276 275 275 274 274 274 272 272 270 270 274 274 274
274 271 269 271 273 278 281 285 288 289 287 288 289 287 287 286 288 287 289 290 288 287 287 287 287 289 286 282 278 276 277 280 282 283 281 278 276 275 273 273 273 272 269 269 268 269 274 273 273
271 267 266 269 274 276 278 281 285 289 285 283 285 284 281 288 289 293 293 296 296 293 290 291 291 289 285 283 281 279 280 281 283 283 281 280 279 276 271 272 271 269 268 266 267 270 275 274 272
269 268 268 270 272 275 277 279 283 286 283 277 276 279 285 287 291 296 297 298 300 296 296 295 295 293 289 285 283 284 282 284 284 283 282 281 280 278 279 275 268 268 269 267 267 269 272 273 272
270 269 265 266 269 268 272 273 275 277 279 277 275 279 281 284 290 292 295 297 299 299 298 298 298 296 293 290 287 287 286 284 285 283 282 282 280 277 280 277 274 273 270 268 270 271 271 272 272
268 268 265 265 265 265 267 268 271 276 279 278 275 278 281 284 289 293 297 298 298 296 297 297 297 296 296 295 292 290 288 285 286 286 284 284 282 278 276 275 272 274 276 274 274 276 276 273 271
268 269 267 266 266 267 267 268 271 276 276 274 273 277 279 282 288 294 297 298 296 295 294 296 297 296 295 295 294 294 292 289 289 289 288 286 283 281 279 277 273 273 274 273 275 276 276 273 271
269 268 265 266 268 268 267 268 268 270 271 272 271 274 274 276 282 290 293 294 293 294 296 294 295 297 298 296 295 295 294 292 291 290 287 284 283 281 280 279 274 274 274 274 276 275 274 274 275
264 264 262 264 265 266 267 269 269 267 271 272 271 273 275 278 281 290 293 293 292 294 296 294 297 296 297 297 296 295 294 293 292 288 283 282 281 279 280 280 277 275 275 275 275 277 276 274 274
261 262 262 263 263 265 268 270 270 269 270 273 274 276 278 281 285 289 293 294 295 295 294 297 298 295 295 296 295 294 294 293 290 287 283 280 279 279 279 278 276 274 276 277 278 279 279 275 272
262 263 262 263 264 264 266 268 271 272 272 273 274 275 279 281 283 287 291 295 297 295 295 298 299 297 297 299 299 297 297 296 292 288 284 280 278 280 282 281 276 274 277 278 280 281 281 278 274
261 264 261 261 261 262 266 268 267 270 272 274 273 276 278 279 283 286 286 288 292 293 294 298 297 297 297 298 298 296 294 293 291 288 283 278 277 279 281 283 277 274 277 278 279 279 277 278 277
261 259 261 262 262 263 265 266 264 267 269 271 272 275 276 279 283 283 279 281 286 292 294 296 296 297 296 296 298 297 294 291 289 287 283 279 277 277 278 280 277 274 275 276 277 276 276 275 274
260 260 261 263 264 263 264 266 262 264 268 269 271 275 275 278 281 281 278 278 283 290 294 297 296 295 295 296 298 299 296 292 290 289 285 281 280 280 278 277 276 274 277 275 275 276 278 278 277
260 260 262 263 263 265 264 266 268 268 269 272 273 275 275 277 279 280 278 277 282 290 292 294 293 293 293 293 295 297 296 293 289 289 289 283 283 283 281 278 275 273 275 275 274 275 277 278 279
261 264 266 267 267 268 267 269 272 273 273 274 274 276 278 278 280 281 279 282 287 291 291 290 289 291 291 290 293 295 295 292 290 288 287 288 287 284 280 277 275 274 274 276 275 275 277 277 278
260 263 266 267 268 269 269 270 270 274 273 274 276 278 280 280 280 282 284 286 290 292 292 291 290 292 292 291 293 296 294 291 288 287 287 287 288 287 281 278 276 274 273 274 274 275 276 276 278
261 262 263 265 267 268 268 269 272 271 271 274 276 277 279 281 281 281 284 286 288 289 291 291 291 292 292 290 291 293 291 290 287 288 287 288 290 291 284 279 277 275 274 273 274 274 276 278 280
259 260 261 262 264 266 268 270 276 273 273 275 274 275 278 282 284 282 282 285 286 287 289 290 290 288 288 290 290 290 288 287 286 287 287 290 290 289 286 281 277 276 275 275 274 276 278 280 282
257 259 261 261 264 267 269 271 274 272 272 275 275 276 280 285 285 284 284 284 285 285 286 287 290 288 288 290 289 286 285 286 287 288 289 290 291 288 287 284 278 277 277 276 273 276 278 281 282